{"data":{"norad_id":66118,"epoch":"2026-05-25T00:26:29.678784Z","epoch_age_seconds":67480,"freshness":"FRESH","line1":"1 66118U 25237E   26145.01839906  .00018685  00000+0  64136-3 0  9995","line2":"2 66118  53.1584  45.3126 0001119  86.2158 273.8970 15.30202819 34298","mean_motion":15.30202819,"eccentricity":0.0001119,"inclination_deg":53.1584,"raan_deg":45.3126,"arg_perigee_deg":86.2158,"mean_anomaly_deg":273.897,"bstar":0.00064136,"rev_number":3429,"period_min":94.105172341863,"perigee_km":474.43976325167,"apogee_km":475.97354156108,"semimajor_km":6853.3436524064,"source":"CELESTRAK","updated_at":"2026-05-25T13:38:21.062041Z"}}